Theta_e
312 313 314 315 316 316 317 317 317 318 318 318 318 318 318 319 319 319 319 318 315 316 313 309 301 300 301 301 302 303 300 299 300 301 303 306 305 305 306 303 305 303 303
314 315 315 315 315 316 316 317 317 318 318 319 318 318 319 319 318 318 318 318 317 314 312 309 300 298 299 302 303 304 302 300 299 301 304 304 304 305 304 303 304 302 302
315 315 316 316 316 317 317 317 317 318 319 319 319 319 319 318 318 317 317 317 318 316 313 308 300 297 297 302 300 299 298 298 297 299 304 304 302 305 303 302 301 301 301
316 316 317 317 318 319 319 318 318 318 319 319 319 320 319 318 317 317 316 316 315 314 314 308 298 297 296 296 297 297 296 296 297 297 303 303 303 302 302 301 301 301 300
317 317 318 318 319 320 320 320 320 319 319 319 320 320 319 318 318 316 316 316 314 313 313 311 302 297 296 295 295 295 296 295 295 295 299 302 302 301 301 300 300 300 299
318 318 319 319 320 320 321 321 322 320 319 319 321 320 320 319 318 316 316 317 315 313 313 313 313 301 297 296 295 294 295 295 295 295 296 299 300 299 301 300 299 299 299
318 319 319 320 320 321 321 322 323 323 321 320 321 321 319 319 317 317 315 316 315 314 314 314 313 313 304 297 296 294 294 294 294 294 294 295 299 298 299 299 299 298 298
318 319 319 319 320 321 321 322 322 323 323 321 321 321 320 318 317 317 316 316 315 315 315 315 314 314 312 307 297 295 294 294 294 293 293 294 297 297 297 297 297 297 297
318 318 319 319 320 320 320 321 322 323 324 323 322 321 320 319 318 317 317 317 316 316 316 315 314 314 314 313 307 297 295 294 293 293 292 292 294 294 295 295 297 296 296
317 317 318 318 319 319 320 320 321 322 324 323 323 322 321 320 319 318 318 317 317 316 316 316 315 313 311 311 310 302 295 294 293 293 292 292 291 292 292 292 295 294 295
321 319 317 317 318 318 318 319 320 321 322 324 323 322 322 321 321 320 319 319 318 318 319 318 317 314 312 310 309 305 297 294 293 292 292 292 291 291 291 291 291 291 293
317 318 320 319 318 318 318 318 319 321 322 323 324 324 322 321 321 320 320 320 320 320 320 320 319 319 315 312 309 306 300 294 293 292 292 291 291 290 290 290 290 289 289
324 317 316 318 318 318 317 318 319 320 322 322 323 325 325 324 321 321 320 320 320 320 320 320 319 319 317 314 310 307 299 294 292 292 292 291 291 290 290 289 289 289 288
327 324 320 319 319 319 319 319 320 321 322 322 323 323 324 325 324 324 323 321 319 320 320 321 320 320 318 314 315 303 301 294 292 291 291 291 291 290 290 289 288 288 288
325 325 325 324 324 323 324 324 323 324 324 325 325 325 325 325 325 325 325 324 322 319 319 319 319 318 316 315 314 312 305 295 292 291 290 291 290 290 289 289 288 288 288
325 325 325 326 326 327 327 327 327 326 325 325 324 324 324 323 323 324 323 323 323 322 318 319 318 317 317 315 314 312 307 296 292 290 290 290 291 290 289 290 288 288 288
326 326 327 328 328 327 326 325 325 325 327 325 326 326 325 325 325 324 324 324 323 322 319 316 316 314 316 315 314 306 305 297 292 290 290 291 292 290 289 289 289 288 288
327 327 328 327 326 325 324 324 325 324 326 325 325 325 325 325 324 324 322 322 321 320 317 316 315 315 312 314 309 307 303 297 294 290 290 291 293 292 289 289 289 288 288
327 327 326 325 324 323 323 323 323 325 324 324 324 323 322 323 321 320 319 317 317 317 317 316 315 315 311 309 307 303 298 296 294 290 290 293 296 294 290 289 288 288 288
324 325 327 326 325 323 322 321 321 321 322 321 320 319 320 320 318 317 317 317 316 316 315 313 310 310 307 307 304 301 297 296 294 290 290 298 296 292 291 290 289 288 288
312 311 312 313 313 314 316 321 322 321 320 318 319 317 315 315 315 314 315 314 313 312 311 310 308 306 306 304 302 299 298 295 294 290 290 297 296 296 294 290 290 288 288
308 308 309 309 309 309 311 312 313 315 314 314 311 311 310 309 309 310 309 308 308 309 308 310 307 306 305 302 299 298 294 294 293 292 291 297 295 295 294 294 291 288 287
309 309 309 309 309 309 309 309 309 309 308 309 309 309 309 308 307 307 307 307 308 309 309 307 306 305 303 301 297 294 298 295 293 292 291 296 295 296 296 296 293 290 287
309 309 309 309 308 308 308 308 308 308 308 307 307 307 308 307 308 308 308 308 309 308 308 306 304 302 301 299 296 298 298 292 291 291 289 292 295 296 296 295 295 290 287
308 308 308 307 307 307 307 307 307 307 307 306 307 308 308 309 310 310 310 309 308 306 304 303 301 300 299 297 297 297 291 291 290 290 289 290 294 296 296 296 295 290 287
307 307 307 307 306 306 306 307 307 307 306 306 306 306 308 309 308 309 308 306 306 303 300 299 298 298 297 297 296 292 289 289 289 289 289 289 292 295 294 295 294 294 289
Wind_Speed
11 10 10 9 8 7 5 5 5 5 5 5 4 4 5 7 8 9 9 7 4 3 7 10 11 10 9 8 7 6 8 8 9 9 10 12 11 12 10 14 15 16 16
11 11 10 9 7 6 7 7 6 7 7 7 6 6 5 7 8 12 11 11 8 8 11 11 12 12 10 7 5 5 7 7 7 7 10 10 8 8 11 13 15 16 15
12 12 11 9 8 9 8 8 8 9 10 10 9 7 6 8 10 10 12 14 12 11 12 13 13 12 10 5 6 6 5 6 6 5 7 9 9 10 11 12 12 13 13
14 14 13 11 10 10 9 9 9 10 11 12 11 10 8 11 11 12 12 12 13 15 15 15 13 11 11 9 7 7 6 5 4 3 5 6 8 6 7 9 10 11 14
16 15 14 12 13 13 12 11 11 12 12 13 13 13 12 13 14 14 15 12 14 16 16 16 15 13 12 11 9 10 8 6 5 2 3 3 5 3 5 8 8 9 10
18 17 16 15 16 16 15 14 14 14 14 14 16 16 16 15 15 17 17 15 16 16 18 16 17 16 15 13 12 12 11 8 6 4 2 3 4 2 3 5 6 8 9
21 21 19 19 19 20 17 17 17 16 17 18 19 19 17 20 20 18 18 18 19 20 22 21 18 19 18 16 14 14 13 11 9 7 5 4 5 2 1 1 4 6 6
24 24 23 22 23 23 22 21 21 20 19 21 22 22 20 22 24 23 23 22 21 20 21 21 21 18 18 20 18 17 15 14 13 10 8 7 5 3 2 2 2 4 4
27 27 26 26 25 26 26 25 24 24 23 22 25 23 11 19 20 21 22 24 25 27 28 25 25 22 20 20 21 20 18 16 15 13 11 10 9 7 5 4 2 2 4
30 29 30 29 28 29 30 28 27 28 27 28 27 30 32 33 27 22 26 25 30 32 31 31 31 29 26 23 21 22 21 19 17 15 14 12 11 9 8 8 4 4 5
32 33 32 32 32 32 32 31 31 31 32 32 32 31 32 36 39 41 36 33 35 36 37 37 35 34 32 30 25 24 24 22 19 17 15 14 12 12 10 10 8 7 6
33 35 35 35 34 34 34 34 33 34 35 35 36 36 36 37 38 40 43 45 46 47 45 42 40 38 38 35 29 26 26 25 21 19 17 15 14 13 13 13 11 11 11
36 34 34 34 35 34 35 36 36 37 37 38 38 40 41 44 42 44 48 51 51 51 49 48 43 41 41 37 33 32 28 27 25 21 19 17 15 14 15 14 13 14 14
35 34 32 31 31 32 33 34 36 37 38 39 40 42 44 45 45 50 51 50 46 51 53 53 46 45 42 40 32 33 29 28 27 24 21 17 16 15 16 14 15 15 15
34 33 32 31 30 29 29 30 31 32 33 32 35 37 40 42 46 48 52 54 53 42 44 42 44 46 42 41 29 34 33 30 28 26 23 20 17 17 17 15 16 16 17
31 30 30 28 27 26 26 26 28 29 31 31 32 33 35 37 39 41 42 41 43 49 46 42 40 33 35 27 38 31 32 30 30 28 24 21 18 18 17 17 18 17 19
29 28 28 28 27 27 26 28 31 31 32 31 32 35 35 35 40 41 41 45 42 43 45 42 41 35 33 29 37 32 29 31 31 28 24 20 19 19 18 19 20 19 21
28 27 27 27 28 28 28 30 29 30 30 31 32 34 36 35 35 34 38 36 40 38 41 41 39 41 37 38 31 28 26 32 32 28 23 21 18 19 20 22 23 20 22
30 28 28 29 28 27 27 28 30 29 30 30 30 34 32 28 31 32 32 33 31 34 36 38 37 40 36 31 29 27 27 30 30 28 25 21 19 20 20 25 26 23 24
28 28 27 27 27 27 27 27 27 29 29 32 31 32 31 32 34 35 33 32 29 30 31 32 34 32 30 29 27 26 29 28 32 29 26 20 18 17 24 27 25 26 27
25 25 25 25 26 26 27 27 27 29 31 31 33 34 34 33 32 31 31 32 32 32 30 29 30 33 34 30 29 25 25 26 28 30 26 22 19 18 24 27 25 28 29
19 19 19 19 20 20 21 24 26 28 29 31 31 30 31 32 32 31 31 30 31 29 27 28 26 27 30 26 22 18 19 28 32 31 30 23 20 17 15 19 27 29 31
17 17 17 17 18 19 20 21 23 25 25 25 26 26 25 23 22 22 21 22 24 24 25 23 23 24 25 25 20 21 26 28 31 31 29 23 18 16 15 22 24 29 31
18 18 17 17 17 18 20 22 23 22 21 22 21 20 20 20 21 22 23 24 25 24 23 20 20 21 23 24 27 23 24 27 28 32 34 28 23 19 20 21 27 27 30
17 17 17 18 19 20 20 22 22 19 17 17 16 17 16 18 19 22 22 23 21 20 19 18 19 20 22 25 22 23 26 26 30 32 36 35 26 25 24 22 25 26 28
16 16 16 16 16 17 17 18 18 17 17 15 14 14 16 15 18 20 19 18 16 13 16 16 16 18 19 20 21 24 25 26 28 31 34 37 30 28 27 27 22 27 29
Wind_Direction
194 200 202 200 201 207 228 237 244 254 261 273 288 305 325 340 345 350 344 339 323 247 277 333 339 346 354 9 19 30 29 35 44 50 56 65 64 59 65 56 63 52 41
203 209 213 214 218 227 239 246 249 251 262 267 272 286 302 342 335 334 344 333 318 305 302 312 323 328 338 351 13 23 31 33 36 49 66 70 63 67 67 54 55 46 39
214 216 218 221 225 234 241 248 253 255 259 262 267 281 291 311 317 324 322 339 327 314 308 307 314 313 317 332 343 357 6 11 21 50 81 81 62 66 61 57 45 41 44
221 226 229 229 233 242 249 255 259 259 262 264 265 273 276 290 299 314 312 322 334 321 320 314 311 311 310 310 318 328 339 344 357 47 92 95 89 64 67 57 49 43 43
226 230 236 238 243 248 253 258 262 264 266 265 265 270 277 285 285 299 306 299 319 321 317 316 311 305 303 299 307 309 314 317 314 324 121 117 103 65 75 64 43 38 37
235 236 238 241 245 250 253 259 265 267 266 256 258 262 266 273 278 291 298 290 312 308 310 310 306 300 299 294 295 293 295 297 289 275 220 191 138 62 70 69 51 36 27
240 243 243 245 249 254 259 261 262 263 262 256 256 257 263 258 264 265 281 286 294 291 294 298 303 298 293 291 286 280 281 286 282 268 254 238 186 156 259 4 43 42 18
239 242 245 246 250 255 257 258 261 263 262 258 256 259 261 265 269 273 272 282 288 292 294 288 288 294 288 285 283 277 272 271 270 265 259 234 225 219 231 294 5 30 15
243 245 248 249 250 254 258 260 261 262 263 263 259 253 252 261 276 275 274 273 274 273 271 274 269 274 278 278 276 273 267 263 262 260 252 246 245 248 248 268 298 10 9
247 249 251 252 253 255 257 260 261 262 261 260 259 256 255 259 264 273 273 273 274 269 271 272 271 268 266 267 269 270 266 261 260 256 251 248 250 258 258 277 258 303 342
252 252 253 255 257 258 260 262 262 260 261 260 263 262 257 258 261 264 271 272 274 279 280 273 271 270 268 266 262 264 264 258 255 254 251 253 257 261 266 270 269 292 305
258 256 256 258 260 261 263 264 265 264 264 263 263 265 261 258 261 265 268 274 279 283 281 279 277 274 267 264 260 259 260 257 252 251 250 250 255 264 272 274 278 291 299
258 258 258 259 262 267 268 268 269 269 268 268 267 267 268 264 263 266 267 270 273 277 277 278 275 271 262 261 260 254 251 254 254 250 247 249 254 261 269 275 279 290 296
263 265 265 266 267 268 269 270 271 273 273 274 274 272 272 272 272 267 268 268 268 273 276 276 279 273 265 255 266 253 253 249 251 250 246 247 253 260 266 274 275 285 293
264 267 268 270 272 273 273 273 272 272 275 277 277 280 279 279 277 278 277 277 273 269 274 280 280 273 265 262 269 264 251 246 249 248 245 245 252 260 262 274 272 285 292
268 270 272 273 274 274 274 274 274 274 275 275 276 277 278 279 282 284 284 285 286 284 271 280 279 285 286 260 282 255 249 240 243 242 243 248 258 265 260 276 271 278 290
265 267 269 272 274 273 272 272 272 276 276 279 281 281 281 285 285 287 291 284 286 285 285 274 283 283 269 267 262 248 241 238 240 243 246 249 261 266 260 273 274 272 286
264 265 268 271 270 270 272 272 275 276 277 278 281 283 285 288 292 293 290 297 295 294 294 287 290 287 268 262 253 238 234 235 240 240 241 249 263 270 266 273 272 270 279
263 264 263 264 268 270 271 269 271 273 273 277 283 280 284 286 287 287 289 292 297 295 294 291 291 287 272 256 245 232 233 237 233 235 235 247 264 267 271 273 267 271 278
262 264 263 263 263 262 261 265 265 269 270 275 278 276 277 281 284 288 288 291 291 293 296 299 290 277 261 259 242 232 227 241 235 232 232 251 264 271 270 272 277 274 276
258 260 260 260 259 259 258 259 260 263 271 276 279 280 282 283 283 284 289 289 290 293 296 295 287 273 259 245 239 237 238 243 241 237 231 246 255 268 275 272 279 274 273
254 255 256 257 258 259 260 264 267 270 274 279 281 282 282 283 281 278 279 285 287 290 288 286 284 273 262 258 252 247 240 250 244 233 234 240 252 265 292 306 289 275 269
247 250 252 254 257 262 266 270 275 276 278 281 284 287 291 297 300 298 294 292 291 289 288 290 283 274 264 261 240 229 239 250 247 237 238 232 245 261 293 303 289 279 268
241 246 252 259 266 269 272 273 276 280 285 289 294 301 306 309 305 306 309 301 299 293 290 293 290 279 266 241 241 252 247 253 245 240 236 244 244 265 288 306 312 288 273
245 252 258 262 266 270 274 278 279 282 284 288 294 296 302 304 304 306 306 302 302 300 295 291 281 271 263 257 254 238 250 246 242 240 238 249 250 268 284 302 309 293 278
254 260 262 267 273 279 287 293 296 296 295 293 292 294 296 306 310 313 315 315 312 310 303 296 288 278 264 253 240 250 251 251 252 250 248 249 253 268 283 296 302 311 290